When you browse on this site, cookies collect data to enhance your experience and personalize the content and advertising you see.
Visit our Privacy Policy to learn more. By continuing to use the site, you agree to this use of cookies and data.

Hourly Weather Agcabadi

Today, 9 July, Thursday

Time Temperature Precipitation Wind Pressure Humidity
00:00 +29°C° 0 mm 2 mps 754 mmHg 47%
01:00 +28°C° 0.1 mm 2 mps 754 mmHg 49%
02:00 +28°C° 0.1 mm 3 mps 754 mmHg 51%
03:00 +28°C° 0.1 mm 3 mps 754 mmHg 53%
04:00 +28°C° 0.1 mm 4 mps 754 mmHg 53%
05:00 +28°C° 0.1 mm 4 mps 755 mmHg 53%
06:00 +29°C° 0.1 mm 5 mps 755 mmHg 53%
07:00 +32°C° 0.1 mm 5 mps 755 mmHg 48%
08:00 +33°C° 0.1 mm 6 mps 755 mmHg 42%
09:00 +35°C° 0.1 mm 6 mps 755 mmHg 37%
10:00 +37°C° 0 mm 5 mps 755 mmHg 34%
11:00 +38°C° 0 mm 4 mps 755 mmHg 30%
12:00 +40°C° 0 mm 3 mps 755 mmHg 26%
13:00 +42°C° 0 mm 3 mps 754 mmHg 24%
14:00 +41°C° 0 mm 2 mps 754 mmHg 23%
15:00 +42°C° 0 mm 2 mps 754 mmHg 21%
16:00 +42°C° 0 mm 4 mps 754 mmHg 23%
17:00 +41°C° 0 mm 6 mps 754 mmHg 26%
18:00 +40°C° 0 mm 8 mps 754 mmHg 28%
19:00 +38°C° 0 mm 7 mps 755 mmHg 33%
20:00 +35°C° 0 mm 6 mps 756 mmHg 37%
21:00 +33°C° 0 mm 5 mps 756 mmHg 42%
22:00 +32°C° 0.1 mm 4 mps 756 mmHg 45%
23:00 +30°C° 0.1 mm 3 mps 757 mmHg 48%

Tomorrow, 10 July, Friday

Time Temperature Precipitation Wind Pressure Humidity
00:00 +30°C° 0.1 mm 2 mps 757 mmHg 51%
01:00 +29°C° 0 mm 2 mps 757 mmHg 52%
02:00 +29°C° 0 mm 2 mps 757 mmHg 54%
03:00 +28°C° 0 mm 1 mps 757 mmHg 55%
04:00 +28°C° 0.1 mm 2 mps 757 mmHg 56%
05:00 +28°C° 0.1 mm 2 mps 757 mmHg 57%
06:00 +28°C° 0.1 mm 3 mps 757 mmHg 58%
07:00 +30°C° 0 mm 3 mps 758 mmHg 53%
08:00 +31°C° 0 mm 3 mps 758 mmHg 48%
09:00 +34°C° 0 mm 3 mps 758 mmHg 43%
10:00 +35°C° 0 mm 2 mps 758 mmHg 39%
11:00 +37°C° 0 mm 2 mps 758 mmHg 36%
12:00 +38°C° 0 mm 2 mps 757 mmHg 32%
13:00 +39°C° 0 mm 2 mps 757 mmHg 30%
14:00 +40°C° 0 mm 3 mps 757 mmHg 28%
15:00 +42°C° 0 mm 3 mps 756 mmHg 26%
16:00 +41°C° 0 mm 5 mps 756 mmHg 26%
17:00 +40°C° 0 mm 7 mps 757 mmHg 27%
18:00 +39°C° 0 mm 9 mps 757 mmHg 28%
19:00 +37°C° 0.2 mm 8 mps 757 mmHg 35%
20:00 +34°C° 0.2 mm 6 mps 758 mmHg 41%
21:00 +32°C° 0.2 mm 5 mps 759 mmHg 48%
22:00 +32°C° 0.1 mm 4 mps 759 mmHg 49%
23:00 +30°C° 0.1 mm 3 mps 759 mmHg 51%

Day after tomorrow, 11 July, Saturday

Time Temperature Precipitation Wind Pressure Humidity
00:00 +30°C° 0.1 mm 2 mps 759 mmHg 52%
01:00 +29°C° 0 mm 2 mps 759 mmHg 56%
02:00 +28°C° 0 mm 2 mps 759 mmHg 59%
03:00 +27°C° 0 mm 2 mps 759 mmHg 62%
04:00 +28°C° 0 mm 2 mps 759 mmHg 61%
05:00 +28°C° 0 mm 1 mps 759 mmHg 60%
06:00 +29°C° 0 mm 1 mps 759 mmHg 59%
07:00 +30°C° 0 mm 1 mps 759 mmHg 53%
08:00 +32°C° 0 mm 1 mps 759 mmHg 46%
09:00 +33°C° 0 mm 1 mps 759 mmHg 39%
10:00 +34°C° 0 mm 1 mps 758 mmHg 36%
11:00 +37°C° 0 mm 2 mps 758 mmHg 32%
12:00 +38°C° 0 mm 3 mps 758 mmHg 28%
13:00 +38°C° 0 mm 3 mps 757 mmHg 27%
14:00 +40°C° 0 mm 4 mps 757 mmHg 26%
15:00 +40°C° 0 mm 5 mps 756 mmHg 26%
16:00 +39°C° 0 mm 6 mps 756 mmHg 27%
17:00 +39°C° 0 mm 6 mps 756 mmHg 29%
18:00 +38°C° 0 mm 7 mps 756 mmHg 31%
19:00 +35°C° 0 mm 7 mps 757 mmHg 36%
20:00 +33°C° 0 mm 6 mps 757 mmHg 42%
21:00 +30°C° 0 mm 6 mps 757 mmHg 47%
22:00 +30°C° 0 mm 5 mps 757 mmHg 48%
23:00 +29°C° 0 mm 4 mps 757 mmHg 49%

12 July, Sunday

Time Temperature Precipitation Wind Pressure Humidity
00:00 +28°C° 0 mm 2 mps 757 mmHg 50%
01:00 +28°C° 0 mm 2 mps 757 mmHg 52%
02:00 +27°C° 0 mm 1 mps 757 mmHg 54%
03:00 +27°C° 0 mm 1 mps 757 mmHg 55%
04:00 +27°C° 0 mm 1 mps 757 mmHg 55%
05:00 +28°C° 0 mm 1 mps 757 mmHg 54%
06:00 +28°C° 0 mm 1 mps 756 mmHg 53%
07:00 +30°C° 0 mm 1 mps 756 mmHg 47%
08:00 +32°C° 0 mm 2 mps 756 mmHg 41%
09:00 +34°C° 0 mm 2 mps 756 mmHg 36%
10:00 +36°C° 0 mm 3 mps 756 mmHg 32%
11:00 +37°C° 0 mm 3 mps 755 mmHg 29%
12:00 +40°C° 0 mm 4 mps 755 mmHg 26%
13:00 +40°C° 0 mm 4 mps 755 mmHg 26%
14:00 +41°C° 0 mm 4 mps 754 mmHg 25%
15:00 +41°C° 0 mm 4 mps 754 mmHg 24%
16:00 +41°C° 0 mm 5 mps 754 mmHg 25%
17:00 +40°C° 0 mm 5 mps 754 mmHg 26%
18:00 +40°C° 0 mm 5 mps 754 mmHg 27%
19:00 +37°C° 0 mm 4 mps 754 mmHg 31%
20:00 +35°C° 0 mm 3 mps 755 mmHg 35%
21:00 +33°C° 0 mm 3 mps 755 mmHg 39%
22:00 +31°C° 0 mm 2 mps 755 mmHg 44%
23:00 +30°C° 0 mm 2 mps 755 mmHg 48%

13 July, Monday

Time Temperature Precipitation Wind Pressure Humidity
00:00 +29°C° 0 mm 2 mps 755 mmHg 53%
01:00 +28°C° 0 mm 2 mps 754 mmHg 56%
02:00 +27°C° 0 mm 2 mps 754 mmHg 60%
03:00 +27°C° 0 mm 2 mps 754 mmHg 63%
04:00 +27°C° 0 mm 2 mps 754 mmHg 62%
05:00 +28°C° 0 mm 1 mps 754 mmHg 61%
06:00 +28°C° 0 mm 1 mps 754 mmHg 60%
07:00 +30°C° 0 mm 2 mps 754 mmHg 53%
08:00 +32°C° 0 mm 2 mps 754 mmHg 46%
09:00 +35°C° 0 mm 2 mps 754 mmHg 39%
10:00 +37°C° 0 mm 3 mps 753 mmHg 35%
11:00 +38°C° 0 mm 3 mps 753 mmHg 31%
12:00 +40°C° 0 mm 3 mps 753 mmHg 27%
13:00 +42°C° 0 mm 4 mps 752 mmHg 25%
14:00 +42°C° 0 mm 4 mps 752 mmHg 24%
15:00 +43°C° 0 mm 4 mps 751 mmHg 22%
16:00 +42°C° 0 mm 5 mps 752 mmHg 24%
17:00 +41°C° 0 mm 6 mps 752 mmHg 26%
18:00 +40°C° 0 mm 7 mps 752 mmHg 27%
19:00 +37°C° 0.1 mm 5 mps 752 mmHg 33%
20:00 +35°C° 0.1 mm 4 mps 753 mmHg 39%
21:00 +33°C° 0.1 mm 3 mps 754 mmHg 44%
22:00 +31°C° 0 mm 2 mps 754 mmHg 48%
23:00 +30°C° 0 mm 2 mps 754 mmHg 51%

14 July, Tuesday

Time Temperature Precipitation Wind Pressure Humidity
00:00 +30°C° 0 mm 1 mps 754 mmHg 54%
01:00 +29°C° 0 mm 2 mps 754 mmHg 55%
02:00 +29°C° 0 mm 2 mps 754 mmHg 55%
03:00 +29°C° 0 mm 2 mps 754 mmHg 56%
04:00 +29°C° 0 mm 2 mps 755 mmHg 55%
05:00 +29°C° 0 mm 2 mps 755 mmHg 55%
06:00 +30°C° 0 mm 2 mps 755 mmHg 54%
07:00 +32°C° 0 mm 2 mps 755 mmHg 49%
08:00 +34°C° 0 mm 3 mps 755 mmHg 44%
09:00 +36°C° 0 mm 3 mps 755 mmHg 39%
10:00 +37°C° 0 mm 3 mps 755 mmHg 36%
11:00 +39°C° 0 mm 3 mps 755 mmHg 32%
12:00 +40°C° 0 mm 3 mps 755 mmHg 29%
13:00 +42°C° 0 mm 3 mps 754 mmHg 27%
14:00 +42°C° 0 mm 3 mps 754 mmHg 25%
15:00 +43°C° 0 mm 3 mps 754 mmHg 24%
16:00 +42°C° 0 mm 4 mps 754 mmHg 25%
17:00 +42°C° 0 mm 5 mps 754 mmHg 26%
18:00 +41°C° 0 mm 7 mps 755 mmHg 27%
19:00 +39°C° 0.3 mm 5 mps 755 mmHg 33%
20:00 +35°C° 0.3 mm 4 mps 756 mmHg 40%
21:00 +33°C° 0.3 mm 3 mps 756 mmHg 46%
22:00 +31°C° 0 mm 2 mps 756 mmHg 49%
23:00 +31°C° 0 mm 2 mps 756 mmHg 51%
Show more